TIANMU-1 11

Last updated on Sun Apr 12 2026 00:02:27 GMT+0000 (Coordinated Universal Time)

1 58645U 23205A 26101.52475067 .00004448 00000+0 17400-3 0 9990 2 58645 97.3509 124.1463 0007487 231.6057 128.4510 15.26326957127359
UTC large
Height (km)
Speed (km/s)
/
Latitude / Longitude
Inclination (degrees)
Orbital Period (minutes)
Azimuth
Elevation
Range (km)
Doppler Factor

Next 0 passes for location: London (51.5072 / 0.1276)

Sorry there are no passes over London.
TIANMU-1 11